GW0374 Weather Reports


time (UTC)temp
F
wind
direction
speed
knots
gust
knots
rain 1hr
in
rain 24hr
in
rain mn
in
humidity
%
barometer
mb
20260502210003 64 29 0.0 0.9 0.00 0.00 0.00 87 1018.7
20260502205524 64 31 0.0 0.9 0.00 0.00 0.00 87 1018.8
20260502205003 64 46 0.0 0.9 0.00 0.00 0.00 88 1018.7
20260502204504 64 39 0.0 1.7 0.00 0.00 0.00 88 1018.7
20260502204003 64 38 0.0 1.7 0.00 0.00 0.00 88 1018.6
20260502203503 64 0 0.0 0.0 0.00 0.00 0.00 88 1018.6
20260502203004 64 16 0.0 0.9 0.00 0.00 0.00 88 1018.5
20260502202503 64 15 0.0 0.9 0.00 0.00 0.00 88 1018.6
20260502202004 64 14 0.0 0.9 0.00 0.00 0.00 88 1018.4
20260502201503 65 26 0.0 0.9 0.00 0.00 0.00 88 1018.4
20260502201003 65 31 0.0 2.6 0.00 0.00 0.00 88 1018.3
20260502200503 65 29 0.0 2.6 0.00 0.00 0.00 88 1018.3
20260502200003 65 30 0.0 2.6 0.00 0.00 0.00 88 1018.2
20260502195503 65 62 0.0 1.7 0.00 0.00 0.00 88 1018.3
20260502195004 65 72 0.0 1.7 0.00 0.00 0.00 88 1018.1
20260502194503 65 77 0.0 1.7 0.00 0.00 0.00 88 1018.1
20260502194003 66 45 0.0 3.5 0.00 0.00 0.00 88 1018.1
20260502193504 66 39 0.0 3.5 0.00 0.00 0.00 88 1018.0
20260502193003 66 47 0.0 3.5 0.00 0.00 0.00 88 1018.0
20260502192504 66 53 0.9 4.3 0.00 0.00 0.00 88 1018.0
20260502192003 66 48 0.9 4.3 0.00 0.00 0.00 88 1018.0
20260502191503 66 31 0.9 5.2 0.00 0.00 0.00 88 1018.0
20260502191003 66 34 1.7 6.1 0.00 0.00 0.00 88 1018.1
20260502190503 66 40 1.7 6.1 0.00 0.00 0.00 88 1018.0
20260502190004 67 41 0.9 5.2 0.00 0.00 0.00 88 1018.0
20260502185503 67 47 0.9 5.2 0.00 0.00 0.00 87 1018.1
20260502185004 67 43 0.9 5.2 0.00 0.00 0.00 87 1018.1
20260502184524 67 33 1.7 7.8 0.00 0.00 0.00 87 1018.0
20260502184003 67 34 3.5 8.7 0.00 0.00 0.00 87 1017.9
20260502183503 68 36 3.5 8.7 0.00 0.00 0.00 85 1017.8
20260502182503 68 33 3.5 7.8 0.00 0.00 0.00 85 1018.0
20260502182025 68 34 3.5 7.8 0.00 0.00 0.00 83 1018.1
20260502181524 68 33 3.5 8.7 0.00 0.00 0.00 85 1017.9
20260502181025 69 34 4.3 8.7 0.00 0.00 0.00 83 1017.8
20260502180503 69 36 3.5 8.7 0.00 0.00 0.00 82 1017.9
20260502170503 71 33 5.2 11.3 0.00 0.00 0.00 75 1017.8
20260502164003 71 35 3.5 10.4 0.00 0.00 0.00 75 1018.0
20260502163524 71 35 3.5 9.6 0.00 0.00 0.00 75 1018.1
20260502163003 72 33 2.6 9.6 0.00 0.00 0.00 75 1018.3
20260502162503 72 30 2.6 7.0 0.00 0.00 0.00 74 1018.1
20260502162003 72 34 3.5 8.7 0.00 0.00 0.00 75 1018.5
20260502161503 72 39 3.5 8.7 0.00 0.00 0.00 74 1018.5
20260502161003 72 41 2.6 7.8 0.00 0.00 0.00 74 1018.3
20260502160503 72 64 0.9 5.2 0.00 0.00 0.00 72 1018.5
20260502152003 72 38 2.6 8.7 0.00 0.00 0.00 74 1019.1
20260502151503 72 32 2.6 6.1 0.00 0.00 0.00 74 1019.1
20260502151003 71 35 1.7 4.3 0.00 0.00 0.00 75 1019.3
20260502150503 71 36 2.6 7.8 0.00 0.00 0.00 75 1019.5
20260502130503 71 94 0.9 4.3 0.00 0.00 0.00 77 1020.6
20260502123503 70 27 1.7 5.2 0.00 0.00 0.00 77 1020.8
20260502123004 70 31 2.6 6.1 0.00 0.00 0.00 77 1020.8
20260502122503 70 27 1.7 6.1 0.00 0.00 0.00 77 1020.8
20260502122004 70 22 1.7 7.0 0.00 0.00 0.00 75 1021.0
20260502121503 70 28 2.6 7.0 0.00 0.00 0.00 75 1020.8
20260502121003 70 33 2.6 7.8 0.00 0.00 0.00 77 1021.0
20260502120503 70 30 3.5 7.8 0.00 0.00 0.00 77 1020.8
20260502115524 71 34 3.5 7.8 0.00 0.00 0.00 75 1021.1
20260502115003 70 34 3.5 7.0 0.00 0.00 0.00 75 1021.0
20260502114503 70 31 3.5 7.0 0.00 0.00 0.00 75 1021.1
20260502114003 70 31 3.5 7.0 0.00 0.00 0.00 77 1021.2
20260502113503 70 32 3.5 7.8 0.00 0.00 0.00 77 1021.2
20260502113003 70 32 2.6 7.8 0.00 0.00 0.00 77 1021.4
20260502112503 70 34 3.5 9.6 0.00 0.00 0.00 77 1021.4
20260502112004 70 33 4.3 9.6 0.00 0.00 0.00 77 1021.5
20260502111524 70 30 3.5 8.7 0.00 0.00 0.00 77 1021.5
20260502111004 70 33 4.3 9.6 0.00 0.00 0.00 77 1021.4
20260502110504 70 36 4.3 9.6 0.00 0.00 0.00 77 1021.4
20260502110003 70 34 4.3 9.6 0.00 0.00 0.00 77 1021.5
20260502105503 70 33 4.3 9.6 0.00 0.00 0.00 77 1021.5
20260502105003 70 31 2.6 8.7 0.00 0.00 0.00 75 1021.6
20260502104503 70 31 3.5 10.4 0.00 0.00 0.00 75 1021.7
20260502104003 70 31 4.3 10.4 0.00 0.00 0.00 74 1021.7
20260502103503 70 32 4.3 11.3 0.00 0.00 0.00 74 1021.6
20260502103003 70 34 4.3 11.3 0.00 0.00 0.00 75 1021.6
20260502102525 70 30 3.5 7.8 0.00 0.00 0.00 75 1021.7
20260502102003 70 29 3.5 9.6 0.00 0.00 0.00 75 1021.7
20260502101504 70 29 3.5 9.6 0.00 0.00 0.00 75 1021.7
20260502101004 70 32 3.5 9.6 0.00 0.00 0.00 75 1021.8
20260502100504 70 40 3.5 9.6 0.00 0.00 0.00 75 1021.9
20260502091503 69 37 1.7 6.1 0.00 0.00 0.00 79 1022.3
20260502091004 69 43 1.7 5.2 0.00 0.00 0.00 79 1022.3
20260502090503 68 43 1.7 6.1 0.00 0.00 0.00 79 1022.3
20260502071524 66 49 0.0 0.9 0.00 0.00 0.00 83 1022.3
20260502071003 66 0 0.0 0.0 0.00 0.00 0.00 83 1022.3
20260502070503 66 0 0.0 0.0 0.00 0.00 0.00 85 1022.3
20260502070004 66 0 0.0 0.0 0.00 0.00 0.00 85 1022.3
20260502065503 66 0 0.0 0.0 0.00 0.00 0.00 83 1022.3
20260502065003 66 0 0.0 0.0 0.00 0.00 0.00 83 1022.2
20260502064524 66 0 0.0 0.0 0.00 0.00 0.00 85 1022.3
20260502064003 65 0 0.0 0.0 0.00 0.00 0.00 85 1022.4
20260502063503 65 0 0.0 0.0 0.00 0.00 0.00 85 1022.4
20260502063024 65 0 0.0 0.0 0.00 0.00 0.00 85 1022.1
20260502062503 65 0 0.0 0.0 0.00 0.00 0.00 85 1022.3
20260502062024 65 0 0.0 0.0 0.00 0.00 0.00 87 1022.2